Theta_e
288 287 286 285 285 284 284 283 282 281 280 280 280 280 280 280 279 279 279 278 278 279
287 287 286 284 284 284 283 283 281 281 280 279 280 280 279 279 278 278 278 278 278 278
287 287 286 283 283 283 283 281 280 280 280 279 279 279 279 278 278 278 278 278 278 278
286 287 285 283 283 283 282 280 280 280 279 279 279 278 278 277 277 277 277 277 277 276
286 285 284 283 282 283 281 280 280 279 279 279 279 278 278 276 277 276 275 275 275 273
285 284 284 284 282 281 281 280 280 279 279 278 278 277 277 277 276 276 276 275 274 272
285 285 285 285 282 281 281 279 279 279 279 278 278 277 277 276 275 275 275 275 274 272
286 286 285 284 281 281 280 280 279 278 278 277 277 277 276 276 274 273 272 272 272 272
286 284 284 284 281 280 279 278 278 277 276 276 277 281 281 276 273 273 272 271 271 272
282 282 282 281 280 279 278 277 277 276 276 275 276 281 282 279 274 273 272 271 271 272
282 283 280 279 278 278 278 277 276 276 275 275 275 282 282 280 274 273 272 272 272 272
280 280 277 278 277 277 277 276 276 275 274 274 274 282 283 280 273 273 272 273 273 272
276 275 277 277 276 276 276 275 275 274 274 274 273 282 283 279 273 271 271 272 273 274
273 274 276 276 275 274 274 274 273 272 272 272 273 279 283 282 273 271 271 271 271 273
Wind_Speed
15 10 10 12 10 11 12 11 12 12 11 9 9 8 8 5 5 6 5 6 4 4
11 12 12 12 10 9 9 10 13 14 12 11 11 11 9 7 8 7 6 6 6 5
14 15 12 10 14 13 11 12 14 14 14 13 11 11 11 7 7 9 6 5 7 5
15 15 13 12 12 13 12 14 15 15 15 16 14 13 11 9 10 10 8 6 7 6
12 11 13 14 15 15 14 14 15 15 16 16 15 14 14 12 11 12 12 11 9 9
11 12 16 16 13 14 15 16 15 16 17 17 17 16 14 14 13 12 12 12 11 10
18 20 19 15 14 16 16 16 16 17 18 18 17 16 15 14 13 11 10 10 8 10
18 16 14 15 16 15 16 15 16 16 15 16 17 14 17 15 13 12 11 9 10 9
12 10 15 14 16 16 15 15 16 16 17 17 13 25 28 19 13 12 12 11 9 8
9 12 14 12 13 14 15 13 16 16 17 17 16 30 31 27 13 14 12 12 11 9
7 10 10 11 14 15 14 16 15 15 16 15 14 31 31 29 13 13 13 13 12 10
4 4 6 10 12 10 12 12 13 14 16 15 12 28 29 25 14 12 12 10 10 10
3 4 8 8 8 7 9 11 11 11 13 16 15 31 32 23 11 12 10 10 11 15
1 1 2 5 4 7 8 8 9 12 11 13 17 22 34 32 13 12 12 10 9 8
Wind_Direction
191 187 190 186 183 187 191 193 177 183 179 171 169 174 168 162 159 163 165 163 151 141
200 195 191 182 183 186 180 175 171 178 176 174 173 174 172 176 169 160 159 168 167 159
198 201 192 174 187 187 178 164 169 175 177 175 177 173 175 174 161 161 170 169 165 156
208 203 195 186 189 188 172 172 173 178 177 177 178 176 179 176 168 169 166 165 164 161
209 197 200 200 189 180 180 178 175 177 178 180 182 177 181 176 178 175 172 174 169 175
202 199 210 206 189 180 178 179 177 176 183 182 181 177 181 181 178 183 178 176 179 174
201 205 210 206 188 182 183 179 181 183 183 182 177 178 177 176 175 180 183 174 177 170
221 216 204 199 188 183 185 188 181 175 180 178 180 177 177 177 172 175 168 169 172 180
231 210 200 200 188 179 180 183 176 181 177 181 186 182 179 169 170 172 172 175 172 182
201 203 204 181 182 181 186 176 184 180 179 185 184 181 181 177 169 170 173 172 172 181
224 214 196 176 180 179 179 181 182 184 184 185 183 183 183 176 170 170 167 170 170 181
254 217 204 195 189 180 178 179 185 181 171 178 179 186 184 171 164 165 164 167 170 179
252 187 201 195 182 180 189 184 172 177 176 177 172 188 186 169 160 163 159 170 179 188
248 254 208 164 168 168 181 174 172 169 166 177 175 186 186 177 166 169 166 168 177 182